• In Hungary
  • List of Countries
  • For 7 days
  • Water Temperature
  • Satellite Maps
  • Weather Map
  • News
  • Weather Widgets
  • user-avatar
    Login

    Hourly Weather Rastereby

    Today, 16 January, Tuesday

    Time Temperature Precipitation Wind Pressure Humidity
    00:00 -12°C° 0 mm 2 mps 759 mmHg 77%
    01:00 -12°C° 0 mm 2 mps 758 mmHg 78%
    02:00 -12°C° 0 mm 2 mps 759 mmHg 78%
    03:00 -12°C° 0 mm 2 mps 758 mmHg 77%
    04:00 -12°C° 0 mm 2 mps 757 mmHg 77%
    05:00 -12°C° 0 mm 2 mps 756 mmHg 77%
    06:00 -13°C° 0 mm 2 mps 756 mmHg 76%
    07:00 -14°C° 0 mm 3 mps 755 mmHg 76%
    08:00 -14°C° 0 mm 3 mps 755 mmHg 75%
    09:00 -13°C° 0 mm 3 mps 754 mmHg 72%
    10:00 -12°C° 0 mm 4 mps 753 mmHg 69%
    11:00 -12°C° 0 mm 4 mps 753 mmHg 66%
    12:00 -11°C° 0 mm 4 mps 752 mmHg 65%
    13:00 -11°C° 0 mm 4 mps 751 mmHg 63%
    14:00 -10°C° 0 mm 4 mps 750 mmHg 64%
    15:00 -11°C° 0 mm 4 mps 750 mmHg 64%
    16:00 -11°C° 0 mm 4 mps 749 mmHg 64%
    17:00 -11°C° 0 mm 4 mps 748 mmHg 65%
    18:00 -12°C° 0 mm 5 mps 748 mmHg 66%
    19:00 -12°C° 0 mm 5 mps 747 mmHg 67%
    20:00 -12°C° 0 mm 5 mps 747 mmHg 68%
    21:00 -12°C° 0 mm 5 mps 746 mmHg 69%
    22:00 -12°C° 0 mm 5 mps 745 mmHg 71%
    23:00 -12°C° 0 mm 6 mps 744 mmHg 72%

    Tomorrow, 17 January, Wednesday

    Time Temperature Precipitation Wind Pressure Humidity
    00:00 -12°C° 0 mm 6 mps 744 mmHg 74%
    01:00 -12°C° 0 mm 6 mps 743 mmHg 76%
    02:00 -11°C° 0 mm 6 mps 742 mmHg 78%
    03:00 -11°C° 0 mm 6 mps 741 mmHg 80%
    04:00 -11°C° 0 mm 7 mps 740 mmHg 82%
    05:00 -11°C° 0 mm 7 mps 739 mmHg 83%
    06:00 -9°C° 0.2 mm 7 mps 738 mmHg 85%
    07:00 -8°C° 0.2 mm 7 mps 737 mmHg 87%
    08:00 -8°C° 0.2 mm 7 mps 736 mmHg 89%
    09:00 -7°C° 0.5 mm 7 mps 736 mmHg 89%
    10:00 -6°C° 0.5 mm 8 mps 735 mmHg 88%
    11:00 -6°C° 0.5 mm 8 mps 735 mmHg 88%
    12:00 -4°C° 0.5 mm 7 mps 734 mmHg 88%
    13:00 -4°C° 0.5 mm 7 mps 734 mmHg 88%
    14:00 -4°C° 0.5 mm 7 mps 733 mmHg 87%
    15:00 -4°C° 0.1 mm 6 mps 734 mmHg 87%
    16:00 -5°C° 0.1 mm 6 mps 734 mmHg 88%
    17:00 -5°C° 0.1 mm 5 mps 734 mmHg 88%
    18:00 -5°C° 0 mm 5 mps 734 mmHg 89%
    19:00 -5°C° 0 mm 4 mps 734 mmHg 91%
    20:00 -5°C° 0 mm 4 mps 735 mmHg 93%
    21:00 -5°C° 0 mm 3 mps 735 mmHg 94%
    22:00 -5°C° 0 mm 3 mps 735 mmHg 94%
    23:00 -5°C° 0 mm 2 mps 735 mmHg 95%

    Day after tomorrow, 18 January, Thursday

    Time Temperature Precipitation Wind Pressure Humidity
    00:00 -5°C° 0 mm 2 mps 735 mmHg 96%
    01:00 -4°C° 0 mm 2 mps 734 mmHg 96%
    02:00 -4°C° 0 mm 2 mps 734 mmHg 96%
    03:00 -4°C° 0 mm 2 mps 734 mmHg 96%
    04:00 -4°C° 0 mm 2 mps 733 mmHg 96%
    05:00 -4°C° 0 mm 2 mps 733 mmHg 96%
    06:00 -5°C° 0.3 mm 3 mps 733 mmHg 96%
    07:00 -5°C° 0.3 mm 3 mps 733 mmHg 96%
    08:00 -5°C° 0.3 mm 4 mps 733 mmHg 95%
    09:00 -5°C° 0.5 mm 4 mps 733 mmHg 94%
    10:00 -4°C° 0.5 mm 4 mps 733 mmHg 93%
    11:00 -5°C° 0.5 mm 5 mps 733 mmHg 92%
    12:00 -5°C° 0.6 mm 5 mps 733 mmHg 92%
    13:00 -5°C° 0.6 mm 5 mps 733 mmHg 92%
    14:00 -5°C° 0.6 mm 5 mps 733 mmHg 92%
    15:00 -5°C° 0.7 mm 5 mps 733 mmHg 92%
    16:00 -5°C° 0.7 mm 5 mps 734 mmHg 93%
    17:00 -5°C° 0.7 mm 5 mps 734 mmHg 93%
    18:00 -4°C° 0.4 mm 4 mps 734 mmHg 93%
    19:00 -4°C° 0.4 mm 4 mps 734 mmHg 93%
    20:00 -4°C° 0.4 mm 4 mps 734 mmHg 93%
    21:00 -5°C° 0.5 mm 4 mps 734 mmHg 94%
    22:00 -5°C° 0.5 mm 4 mps 734 mmHg 94%
    23:00 -5°C° 0.5 mm 4 mps 734 mmHg 94%

    19 January, Friday

    Time Temperature Precipitation Wind Pressure Humidity
    00:00 -5°C° 0.4 mm 4 mps 734 mmHg 94%
    01:00 -5°C° 0.4 mm 4 mps 734 mmHg 94%
    02:00 -5°C° 0.4 mm 4 mps 734 mmHg 94%
    03:00 -6°C° 0.2 mm 3 mps 733 mmHg 95%
    04:00 -6°C° 0.2 mm 3 mps 733 mmHg 95%
    05:00 -6°C° 0.2 mm 3 mps 732 mmHg 96%
    06:00 -6°C° 0.1 mm 3 mps 732 mmHg 96%
    07:00 -7°C° 0.1 mm 3 mps 732 mmHg 96%
    08:00 -7°C° 0.1 mm 3 mps 732 mmHg 96%
    09:00 -7°C° 0 mm 3 mps 732 mmHg 95%
    10:00 -5°C° 0 mm 2 mps 732 mmHg 93%
    11:00 -5°C° 0 mm 2 mps 732 mmHg 92%
    12:00 -4°C° 0.1 mm 2 mps 732 mmHg 92%
    13:00 -4°C° 0.1 mm 2 mps 732 mmHg 92%
    14:00 -4°C° 0.1 mm 2 mps 733 mmHg 91%
    15:00 -2°C° 0.1 mm 1 mps 733 mmHg 93%
    16:00 -3°C° 0.1 mm 1 mps 733 mmHg 94%
    17:00 -3°C° 0.1 mm 1 mps 734 mmHg 95%
    18:00 -4°C° 0 mm 1 mps 734 mmHg 95%
    19:00 -4°C° 0 mm 1 mps 735 mmHg 95%
    20:00 -6°C° 0 mm 2 mps 735 mmHg 95%
    21:00 -7°C° 0 mm 2 mps 736 mmHg 95%
    22:00 -7°C° 0 mm 2 mps 737 mmHg 95%
    23:00 -7°C° 0 mm 2 mps 738 mmHg 95%

    20 January, Saturday

    Time Temperature Precipitation Wind Pressure Humidity
    00:00 -8°C° 0 mm 3 mps 739 mmHg 94%
    01:00 -8°C° 0 mm 3 mps 740 mmHg 94%
    02:00 -8°C° 0 mm 3 mps 740 mmHg 94%
    03:00 -8°C° 0 mm 3 mps 741 mmHg 94%
    04:00 -9°C° 0 mm 3 mps 742 mmHg 94%
    05:00 -9°C° 0 mm 3 mps 742 mmHg 94%
    06:00 -9°C° 0 mm 3 mps 743 mmHg 94%
    07:00 -9°C° 0 mm 3 mps 743 mmHg 95%
    08:00 -9°C° 0 mm 2 mps 744 mmHg 95%
    09:00 -8°C° 0 mm 2 mps 744 mmHg 94%
    10:00 -7°C° 0 mm 2 mps 745 mmHg 93%
    11:00 -6°C° 0 mm 2 mps 746 mmHg 92%
    12:00 -6°C° 0 mm 2 mps 746 mmHg 91%
    13:00 -5°C° 0 mm 2 mps 746 mmHg 91%
    14:00 -5°C° 0 mm 2 mps 746 mmHg 90%
    15:00 -4°C° 0 mm 1 mps 746 mmHg 91%
    16:00 -6°C° 0 mm 1 mps 747 mmHg 93%
    17:00 -7°C° 0 mm 1 mps 747 mmHg 94%
    18:00 -7°C° 0 mm 1 mps 747 mmHg 94%
    19:00 -8°C° 0 mm 2 mps 747 mmHg 94%
    20:00 -8°C° 0 mm 2 mps 747 mmHg 94%
    21:00 -8°C° 0 mm 2 mps 747 mmHg 94%
    22:00 -8°C° 0 mm 2 mps 747 mmHg 94%
    23:00 -9°C° 0 mm 3 mps 747 mmHg 93%

    21 January, Sunday

    Time Temperature Precipitation Wind Pressure Humidity
    00:00 -9°C° 0.2 mm 3 mps 747 mmHg 94%
    01:00 -9°C° 0.2 mm 3 mps 746 mmHg 94%
    02:00 -10°C° 0.2 mm 4 mps 746 mmHg 94%
    03:00 -9°C° 0.3 mm 4 mps 745 mmHg 94%
    04:00 -10°C° 0.3 mm 5 mps 744 mmHg 94%
    05:00 -10°C° 0.3 mm 5 mps 744 mmHg 93%
    06:00 -10°C° 0.6 mm 5 mps 743 mmHg 94%
    07:00 -10°C° 0.6 mm 5 mps 743 mmHg 94%
    08:00 -8°C° 0.6 mm 5 mps 742 mmHg 94%
    09:00 -8°C° 1 mm 5 mps 742 mmHg 94%
    10:00 -8°C° 1 mm 5 mps 741 mmHg 94%
    11:00 -7°C° 1 mm 5 mps 741 mmHg 94%
    12:00 -8°C° 0.7 mm 6 mps 740 mmHg 94%
    13:00 -8°C° 0.7 mm 6 mps 740 mmHg 93%
    14:00 -8°C° 0.7 mm 6 mps 740 mmHg 93%
    15:00 -8°C° 0.6 mm 6 mps 740 mmHg 93%
    16:00 -8°C° 0.6 mm 6 mps 739 mmHg 93%
    17:00 -8°C° 0.6 mm 6 mps 739 mmHg 93%
    18:00 -8°C° 0.5 mm 6 mps 740 mmHg 92%
    19:00 -8°C° 0.5 mm 6 mps 740 mmHg 92%
    20:00 -8°C° 0.5 mm 6 mps 740 mmHg 91%
    21:00 -8°C° 0.3 mm 6 mps 740 mmHg 91%
    22:00 -8°C° 0.3 mm 6 mps 740 mmHg 90%
    23:00 -8°C° 0.3 mm 6 mps 741 mmHg 90%
    Show more